Zurück zum Katalog

PEGASUS R/B

AktivLEO
NORAD 27784·ROCKET BODY·🇺🇸 United States

Gestartet Apr 28, 2003 von Cape Canaveral Space Force Station

Loading…

Nächste Überflüge (nächste 24 Stunden)

TLE

AktuellSource: Space-Track

Epoche: Sep 14, 2026, 13:26 UTC

1 27784U 03017B   26257.55975079  .00000432  00000-0  58943-4 0  9990
2 27784  29.0040 308.4531 0004789 217.0277 142.9982 14.65075662250300

Verfolge PEGASUS R/B in Echtzeit mit AllMySat

Download on the App Store